Skip Page Navigation
NASA JPL Caltech
NASA Logo - Jet Propulsion Laboratory + View the NASA Portal
+ Center for Near-Earth Object Studies
JPL Home Earth Solar System Stars & Galaxies Technology
JPL Solar System Dynamics
BODIES ORBITS EPHEMERIDES TOOLS PHYSICAL DATA DISCOVERY FAQ SITE MAP
IMPORTANT: The SSD Announcement email list is now available. Major changes are coming in the near future, including possible hostname and/or URL changes. To be notified of such changes, subscribe to this email list.

Please visit this page for more details.


JPL Small-Body Database Browser
Search: [ help ]  
382291 (2012 UQ61)
Classification: Jupiter Trojan          SPK-ID: 2382291
Ephemeris | Orbit Diagram | Orbital Elements | Mission Design | Physical Parameters | Discovery Circumstances ]

[ show orbit diagram ]
Orbital Elements at Epoch 2458600.5 (2019-Apr-27.0) TDB
Reference: JPL 15 (heliocentric ecliptic J2000)
 Element Value Uncertainty (1-sigma)   Units 
e .07657569035879293 1.1657e-07  
a 5.277866853553713 5.3394e-07 au
q 4.873710555621047 1.0534e-06 au
i 27.25808482478208 1.2438e-05 deg
node 63.78904932209969 1.7547e-05 deg
peri 261.8030174234565 0.00011462 deg
M 251.382804279226 0.00012512 deg
tp 2459936.732889165043
(2022-Dec-23.23288917)
0.0016798 TDB
period 4428.800033984044
12.13
0.00067206
1.84e-06
d
yr
n .08128612654388745 1.2335e-08 deg/d
Q 5.682023151486378 5.7482e-07 au
  Orbit Determination Parameters
   # obs. used (total)      148  
   data-arc span      6379 days (17.46 yr)  
   first obs. used      2002-01-14  
   last obs. used      2019-07-03  
   planetary ephem.      DE431  
   SB-pert. ephem.      SB431-N16  
   condition code      0  
   norm. resid. RMS      .62747  
   source      ORB  
   producer      Otto Matic  
   solution date      2019-Sep-24 06:59:28  

Additional Information
 Earth MOID = 3.98619 au 
 Jupiter MOID = .162437 au 
 T_jup = 2.771 
[ show covariance matrix ]

Ephemeris | Orbit Diagram | Orbital Elements | Mission Design | Physical Parameters | Discovery Circumstances ]

Physical Parameter Table
Parameter Symbol Value Units Sigma Reference Notes
absolute magnitude H 13.6   n/a MPO434368  

382291 (2012 UQ61)          Discovered 2010-May-07 by WISE at WISE
Reference: Last Updated: 2013-12-19

Alternate Designations
 2012 UQ61 = 2010 JF42 
Ephemeris | Orbit Diagram | Orbital Elements | Mission Design | Physical Parameters | Discovery Circumstances ]
ABOUT SSD CREDITS/AWARDS PRIVACY/COPYRIGHT GLOSSARY LINKS
FirstGov
(server date/time)  
NASA Home Page
Site Manager:   Ryan S. Park
Webmaster  Alan B. Chamberlin